Location: 10033 Water Well
(34.0865°N, 106.8959°W)
Time: 16:27:47
(UTC+00:00)

Cosmos 1633 Rocket - Pass Details

Date: 13 January 2026
Orbit: 600 x 616 km, 82.5° (Epoch: 10 February)

Event Time Altitude Azimuth Distance (km) Brightness Sun altitude
Rises 00:47:33 0° 359° (N) 2,852 6.2 -6.3°
Reaches altitude 10° 00:49:49 10° 5° (N) 1,945 5.4 -6.7°
Maximum altitude 00:54:00 49° 81° (E) 771 3.2 -7.5°
Drops below altitude 10° 00:58:09 10° 157° (SSE) 1,934 5.6 -8.3°
Sets 01:00:24 0° 163° (SSE) 2,834 6.5 -8.8°
